Meath Environmental Platform

Observations for Trim Patrick St

Time AQI Temp °C Hum % Pres Pa CO μg/m³ H₂S μg/m³ NO μg/m³ NO₂ μg/m³ O₃ μg/m³ SO₂ μg/m³ PM1 μg/m³ PM2.5 μg/m³ PM10 μg/m³
Saturday 8 August 2026
13:12 2 28.5 38 69,139 0 0.28 1.03 11.65 93.6 11.55 2 7.18 7.89
13:11 2 28.5 38 69,138 0 0 1.01 9.96 82.05 11.04 2 7.99 8.78
13:10 2 28.5 38 69,134 0 0 1 10.84 91.13 11.45 2.86 7.98 8.78
13:09 2 28.5 37 69,130 0 0 1.15 11.46 85.47 10.79 2 7.21 7.93
13:08 2 28.4 38 69,128 0 0 1.15 10.48 103.62 11.98 2 7.98 8.78
13:07 2 28.5 38 69,126 0 0 1.08 10.1 73.41 11.3 2 7.15 7.86
13:06 2 28.5 37 69,124 0 0 1.16 10.16 69.98 12.22 2 8.01 8.81
13:05 2 28.5 38 69,120 0 0 1.13 10.77 96.99 11.68 2 8.77 9.65
13:04 2 28.5 38 69,116 0 0 1.14 10.29 74.93 11.42 2.86 7.99 8.79
13:03 2 28.5 38 69,112 0 0 1.14 11.73 85.18 11 2 7.2 7.92
13:02 2 28.6 38 69,106 0 0 1.09 10.07 71.43 11.07 2 7.18 7.89
13:01 2 28.6 38 69,134 0 0 1.07 10.19 93.64 11.86 2.86 7.95 8.74
13:00 2 28.6 37 69,138 0 1.26 1.06 11.06 68.48 11.17 2 7.21 7.93
12:59 2 28.6 37 69,141 0.72 2.73 1.07 10.11 73.8 14.1 2 7.21 7.94
12:58 2 28.6 38 69,145 0 0 1.04 10.21 80.64 11.61 2.86 8.75 9.63
12:57 2 28.6 38 69,149 0 0 1.04 9.68 67.5 11.73 2 7.95 8.75
12:56 2 28.6 38 69,157 0 0 1.05 9.9 79.11 11.7 2 7.2 7.92
12:55 2 28.7 37 69,130 0 0 1.07 10.11 71.76 11.88 2 7.21 7.93
12:54 2 28.7 37 69,126 0 0 1.06 10.32 74.8 11.63 2.86 8 8.8
12:53 2 28.7 37 69,122 0 0 1.1 8.37 70.33 11.72 2.86 8 8.81